Terminal Aerodrome Forecast
Issued by NWS

Home | Current Version | Previous Version | Text Only | Print | Product List | Glossary On
Versions: 1 2 3 4 5 6 7 8 9 10 11 12 13 14 15 16 17 18 19 20 21 22 23 24 25 26 27 28 29 30 31 32 33 34 35 36 37 38 39 40 41
000
FTUS46 KPQR 301135
TAFONP
TAF
KONP 301135Z 3012/0112 35004KT 4SM BR OVC004
     FM301500 01007KT P6SM OVC005
     FM302000 35010G18KT P6SM OVC007
     FM302200 35015G23KT P6SM SCT007
     FM010500 36008KT P6SM SCT007=

USA.gov is the U.S. government's official web portal to all federal, state and local government web resources and services.